Siemreap, Cambodia

4:55 AM +07 on May 27, 2017 (GMT +0700)
Siem Reap

Weather History for VDSR - January, 2014

Change the Weather History Date:

Sunday, January 12, 2014

  Actual Average Record
Temperature  
Mean Temperature 78 °F -  
Max Temperature 86 °F - - ()
Min Temperature 69 °F - - ()
Cooling Degree Days 12    
Growing Degree Days 28 (Base 50)    
Moisture  
Dew Point 66 °F    
Average Humidity 64    
Maximum Humidity 94    
Minimum Humidity 45    
Precipitation  
Precipitation 0.00 in - - ()
Sea Level Pressure  
Sea Level Pressure 29.93 in    
Wind  
Wind Speed 3 mph ()    
Max Wind Speed 9 mph    
Max Gust Speed -    
Visibility 5.6 miles    
Events      
T = Trace of Precipitation, MM = Missing Value Source: Averaged Metar Reports

Daily Weather History Graph

Daily Weather History Graph

Search for Another Location

Airport or City:

Trip Planner

Search our weather history database for the weather conditions in past years. The results will help you decide how hot, cold, wet, or windy it might be!

Date:

Astronomy

Jan. 12, 2014 Rise Set
Actual Time 6:30 AM +07 5:54 PM +07
Civil Twilight 6:07 AM +07 6:17 PM +07
Nautical Twilight 5:41 AM +07 6:44 PM +07
Astronomical Twilight 5:15 AM +07 7:10 PM +07
Moon 2:54 PM +07 (1/12) 3:07 AM +07 (1/12)
Length of Visible Light 12h 09m
Length of Day
11h 24m
Waxing Gibbous, 86% of the Moon is Illuminated
Jan 12
Waxing Gibbous
Jan 16
Full
Jan 24
Last Quarter
Jan 31
New
Feb 7
First Quarter

Hourly Weather History & Observations

Time (+07) Temp. Heat Index Dew Point Humidity Pressure Visibility Wind Dir Wind Speed Gust Speed Precip Events Conditions
12:00 AM 75.2 °F - 64.4 °F 69% 29.92 in 5.6 mi Variable 2.3 mph - N/A   Unknown
12:30 AM 75.2 °F - 64.4 °F 69% 29.92 in 5.6 mi Variable 2.3 mph - N/A   Unknown
1:00 AM 75.2 °F - 64.4 °F 69% 29.92 in 5.6 mi NNE 2.3 mph - N/A   Unknown
7:00 AM 69.8 °F - 68.0 °F 94% 29.98 in - NW 3.5 mph - N/A   Scattered Clouds
7:30 AM 71.6 °F - 68.0 °F 88% 29.98 in - NW 2.3 mph - N/A   Scattered Clouds
8:00 AM 71.6 °F - 66.2 °F 83% 29.98 in 6.2 mi North 2.3 mph - N/A   Scattered Clouds
8:30 AM 75.2 °F - 66.2 °F 73% 30.01 in - North 5.8 mph - N/A   Clear
9:00 AM 77.0 °F - 66.2 °F 69% 30.01 in - NNE 3.5 mph - N/A   Clear
9:30 AM 77.0 °F - 66.2 °F 69% 30.01 in - North 5.8 mph - N/A   Clear
10:00 AM 80.6 °F 82.7 °F 66.2 °F 61% 30.01 in - Variable 2.3 mph - N/A   Clear
10:30 AM 80.6 °F 82.7 °F 66.2 °F 61% 29.98 in - Variable 3.5 mph - N/A   Clear
11:00 AM - - - N/A% 29.98 in 6.2 mi NNW 6.9 mph - N/A   Partly Cloudy
11:30 AM 84.2 °F 85.6 °F 64.4 °F 51% 29.95 in 6.2 mi North 3.5 mph - N/A   Scattered Clouds
12:00 PM 84.2 °F 85.6 °F 64.4 °F 51% 29.95 in 6.2 mi NNW 3.5 mph - N/A   Scattered Clouds
12:30 PM 86.0 °F 87.3 °F 64.4 °F 48% 29.92 in 6.2 mi North 3.5 mph - N/A   Scattered Clouds
1:00 PM 84.2 °F 85.6 °F 64.4 °F 51% 29.92 in 6.2 mi WNW 2.3 mph - N/A   Scattered Clouds
1:30 PM 84.2 °F 85.6 °F 64.4 °F 51% 29.89 in 6.2 mi NNE 5.8 mph - N/A   Scattered Clouds
4:00 PM 86.0 °F 87.3 °F 64.4 °F 48% 29.86 in 6.2 mi North 5.8 mph - N/A   Partly Cloudy
4:30 PM 86.0 °F 86.6 °F 62.6 °F 45% 29.86 in 6.2 mi North 9.2 mph - N/A   Partly Cloudy
5:00 PM 86.0 °F 86.6 °F 62.6 °F 45% 29.86 in 6.2 mi North 5.8 mph - N/A   Partly Cloudy
5:30 PM 86.0 °F 87.3 °F 64.4 °F 48% 29.86 in 6.2 mi NNW 5.8 mph - N/A   Partly Cloudy
6:30 PM 82.4 °F 85.4 °F 68.0 °F 62% 29.89 in 5.0 mi Variable 2.3 mph - N/A   Scattered Clouds
7:00 PM 82.4 °F 85.4 °F 68.0 °F 62% 29.89 in 5.0 mi Variable 2.3 mph - N/A   Scattered Clouds
7:30 PM 80.6 °F 83.9 °F 69.8 °F 70% 29.89 in 5.0 mi Variable 2.3 mph - N/A   Scattered Clouds
8:00 PM 80.6 °F 83.2 °F 68.0 °F 65% 29.92 in 5.0 mi Variable 2.3 mph - N/A   Scattered Clouds
8:30 PM 80.6 °F 83.2 °F 68.0 °F 65% 29.92 in 5.0 mi Variable 2.3 mph - N/A   Scattered Clouds
9:00 PM 80.6 °F 83.2 °F 68.0 °F 65% 29.92 in 5.0 mi Variable 2.3 mph - N/A   Scattered Clouds
9:30 PM 78.8 °F - 68.0 °F 69% 29.92 in 5.0 mi NNE 4.6 mph - N/A   Scattered Clouds
10:00 PM 78.8 °F - 68.0 °F 69% 29.92 in 5.0 mi NNE 4.6 mph - N/A   Scattered Clouds
10:30 PM 78.8 °F - 68.0 °F 69% 29.92 in 5.0 mi NE 4.6 mph - N/A   Scattered Clouds
11:00 PM 78.8 °F - 68.0 °F 69% 29.92 in 5.0 mi NE 4.6 mph - N/A   Scattered Clouds
11:30 PM 77.0 °F - 68.0 °F 74% 29.92 in 5.0 mi NNE 5.8 mph - N/A   Unknown